Latest Coastal Weather Observations for Frederick Reef

IDQ60701

Issued at 1:42 am EST Monday 20 April 2015 (issued every 10 minutes, with the page automatically refreshed every 10 minutes)

About coastal observations | Map of coastal stations | Coastal observations for QLD | Marine services | Other Formats
Station Details ID: 200701 Name: FREDERICK REEF Lat: -20.94 Lon: 154.40 Height: 4.9 m
Data from the previous 72 hours. | See also: Recent months for locations in Queensland
Date/Time
EST
Temp

°C
Wind Pressure Rain
since 9am
mm
Weather Cloud Vis
km
Sea
Height
m
Swell
Dir
 
Speed
knots
Gust
knots
hPa Trend Height
m
Period
s
Dir
20/01:30am 25.9 E 10 13 1014.9 - - - - - - - - -
20/01:00am 25.9 E 9 11 1015.0 - - - - - - - - -
20/12:30am 26.0 ENE 10 12 1015.5 - - - - - - - - -
20/12:00am 26.0 E 12 14 1015.7 - - - - - - - - -
 
Date/Time
EST
Temp

°C
Wind Pressure Rain
since 9am
mm
Weather Cloud Vis
km
Sea
Height
m
Swell
Dir
 
Speed
knots
Gust
knots
hPa Trend Height
m
Period
s
Dir
19/11:30pm 25.7 E 12 13 1016.1 - - - - - - - - -
19/11:00pm 26.1 E 12 13 1016.2 - - - - - - - - -
19/10:30pm 26.2 E 12 13 1016.5 - - - - - - - - -
19/10:00pm 26.2 E 11 13 1016.6 - - - - - - - - -
19/09:30pm 26.0 E 10 12 1016.5 - - - - - - - - -
19/09:00pm 26.1 E 10 11 1016.5 - - - - - - - - -
19/08:30pm 26.0 ESE 8 10 1016.8 - - - - - - - - -
19/08:00pm 26.0 ESE 9 11 1016.6 - - - - - - - - -
19/07:30pm 26.0 ESE 11 12 1016.4 - - - - - - - - -
19/07:00pm 26.4 ESE 12 13 1016.1 - - - - - - - - -
19/06:30pm 26.1 ESE 13 14 1015.7 - - - - - - - - -
19/06:00pm 26.1 ESE 13 14 1015.2 - - - - - - - - -
19/05:30pm 26.1 ESE 12 14 1015.1 - - - - - - - - -
19/05:00pm 26.3 E 12 13 1015.1 - - - - - - - - -
19/04:30pm 26.2 ESE 12 14 1014.9 - - - - - - - - -
19/04:00pm 26.2 ESE 11 13 1014.7 - - - - - - - - -
19/03:30pm 26.0 E 12 14 1014.6 - - - - - - - - -
19/03:00pm 26.0 ESE 13 14 1014.3 - - - - - - - - -
19/02:30pm 26.1 E 13 14 1014.5 - - - - - - - - -
19/02:00pm 26.4 ESE 12 14 1014.6 - - - - - - - - -
19/01:30pm 26.2 ESE 12 14 1014.8 - - - - - - - - -
19/01:00pm 26.1 ESE 13 14 1014.9 - - - - - - - - -
19/12:30pm 26.0 ESE 13 14 1015.2 - - - - - - - - -
19/12:00pm 26.1 ESE 13 14 1015.8 - - - - - - - - -
19/11:30am 26.0 ESE 12 13 1016.2 - - - - - - - - -
19/11:00am 26.6 ESE 12 13 1016.8 - - - - - - - - -
19/10:30am 26.6 E 11 12 1017.2 - - - - - - - - -
19/10:00am 26.1 E 11 13 1017.2 - - - - - - - - -
19/09:30am 26.3 E 13 15 1017.3 - - - - - - - - -
19/09:00am 26.8 E 13 16 1017.3 - - - - - - - - -
19/08:30am 26.3 E 14 15 1017.2 - - - - - - - - -
19/08:00am 26.0 E 15 17 1017.0 - - - - - - - - -
19/07:30am 26.0 E 16 18 1016.6 - - - - - - - - -
19/07:00am 26.3 E 15 17 1016.4 - - - - - - - - -
19/06:30am 26.1 E 15 16 1016.2 - - - - - - - - -
19/06:00am 26.0 E 16 18 1016.2 - - - - - - - - -
19/05:30am 26.1 E 16 17 1015.8 - - - - - - - - -
19/05:00am 26.2 E 17 19 1015.6 - - - - - - - - -
19/04:30am 26.2 E 18 20 1015.3 - - - - - - - - -
19/04:00am 25.8 E 19 21 1015.0 - - - - - - - - -
19/03:30am 26.0 E 18 20 1015.0 - - - - - - - - -
19/03:00am 26.0 E 18 21 1015.1 - - - - - - - - -
19/02:30am 25.8 E 19 21 1015.2 - - - - - - - - -
19/02:00am 26.1 E 21 23 1015.5 - - - - - - - - -
19/01:30am 26.0 E 21 23 1015.6 - - - - - - - - -
19/01:00am 26.2 E 22 25 1015.9 - - - - - - - - -
19/12:30am 26.3 E 22 25 1016.3 - - - - - - - - -
19/12:00am 26.3 E 22 24 1016.4 - - - - - - - - -
 
Date/Time
EST
Temp

°C
Wind Pressure Rain
since 9am
mm
Weather Cloud Vis
km
Sea
Height
m
Swell
Dir
 
Speed
knots
Gust
knots
hPa Trend Height
m
Period
s
Dir
18/11:30pm 26.2 E 20 22 1016.7 - - - - - - - - -
18/11:00pm 26.1 E 22 24 1016.7 - - - - - - - - -
18/10:30pm 26.4 E 21 24 1017.1 - - - - - - - - -
18/10:00pm 26.3 E 20 23 1017.3 - - - - - - - - -
18/09:30pm 26.4 E 21 24 1017.4 - - - - - - - - -
18/09:00pm 26.3 E 20 22 1017.4 - - - - - - - - -
18/08:30pm 26.2 E 20 22 1017.4 - - - - - - - - -
18/08:00pm 26.2 ESE 20 22 1017.2 - - - - - - - - -
18/07:30pm 26.2 E 20 22 1016.8 - - - - - - - - -
18/07:00pm 26.1 E 20 22 1016.4 - - - - - - - - -
18/06:30pm 26.1 ESE 18 20 1016.3 - - - - - - - - -
18/06:00pm 25.9 ESE 17 20 1016.2 - - - - - - - - -
18/05:30pm 26.2 ESE 20 22 1015.8 - - - - - - - - -
18/05:00pm 26.2 ESE 19 21 1015.4 - - - - - - - - -
18/04:30pm 26.1 ESE 19 21 1015.7 - - - - - - - - -
18/04:00pm 26.1 ESE 20 21 1015.4 - - - - - - - - -
18/03:30pm 26.4 ESE 19 21 1015.5 - - - - - - - - -
18/03:00pm 26.1 ESE 18 21 1015.4 - - - - - - - - -
18/02:30pm 26.4 E 18 21 1015.5 - - - - - - - - -
18/02:00pm 26.0 E 19 22 1015.4 - - - - - - - - -
18/01:30pm 26.2 E 21 24 1015.6 - - - - - - - - -
18/01:00pm 26.2 E 22 24 1015.6 - - - - - - - - -
18/12:30pm 26.5 E 22 25 1015.8 - - - - - - - - -
18/12:00pm 26.3 E 22 24 1015.9 - - - - - - - - -
18/11:30am 26.1 ESE 20 23 1016.6 - - - - - - - - -
18/11:00am 25.9 ESE 22 24 1017.2 - - - - - - - - -
18/10:30am 26.2 E 22 25 1017.7 - - - - - - - - -
18/10:00am 26.2 E 22 25 1017.9 - - - - - - - - -
18/09:30am 26.0 E 23 26 1018.0 - - - - - - - - -
18/09:00am 25.9 E 25 27 1017.9 - - - - - - - - -
18/08:30am 25.9 E 24 27 1017.8 - - - - - - - - -
18/08:00am 25.9 E 23 27 1017.5 - - - - - - - - -
18/07:30am 25.5 E 25 30 1017.3 - - - - - - - - -
18/07:00am 25.5 ESE 24 27 1017.0 - - - - - - - - -
18/06:30am 25.8 ESE 24 28 1016.8 - - - - - - - - -
18/06:00am 25.7 E 23 31 1016.3 - - - - - - - - -
18/05:30am 25.8 E 24 28 1016.0 - - - - - - - - -
18/05:00am 24.7 ESE 21 26 1015.8 - - - - - - - - -
18/04:30am 24.6 ESE 24 26 1015.6 - - - - - - - - -
18/04:00am 24.9 ESE 25 29 1015.5 - - - - - - - - -
18/03:30am 25.0 ESE 26 30 1015.5 - - - - - - - - -
18/03:00am 25.2 ESE 23 26 1015.5 - - - - - - - - -
18/02:30am 25.3 ESE 23 26 1015.8 - - - - - - - - -
18/02:00am 25.4 ESE 24 27 1015.8 - - - - - - - - -
18/01:30am 25.5 ESE 27 31 1015.9 - - - - - - - - -
18/01:00am 25.5 ESE 23 27 1016.0 - - - - - - - - -
18/12:30am 25.6 ESE 26 30 1016.3 - - - - - - - - -
18/12:00am 26.1 ESE 25 29 1016.5 - - - - - - - - -
 
Date/Time
EST
Temp

°C
Wind Pressure Rain
since 9am
mm
Weather Cloud Vis
km
Sea
Height
m
Swell
Dir
 
Speed
knots
Gust
knots
hPa Trend Height
m
Period
s
Dir
17/11:30pm 26.0 E 27 31 1016.8 - - - - - - - - -
17/11:00pm 26.2 ESE 25 28 1017.0 - - - - - - - - -
17/10:30pm 26.0 E 25 29 1017.1 - - - - - - - - -
17/10:00pm 26.1 E 25 28 1017.2 - - - - - - - - -
17/09:30pm 26.1 ESE 26 29 1017.3 - - - - - - - - -
17/09:00pm 26.1 E 26 30 1017.4 - - - - - - - - -
17/08:30pm 25.9 ESE 24 29 1017.5 - - - - - - - - -
17/08:00pm 26.0 ESE 23 26 1017.4 - - - - - - - - -
17/07:30pm 26.0 ESE 26 29 1017.1 - - - - - - - - -
17/07:00pm 26.0 ESE 25 28 1016.7 - - - - - - - - -
17/06:30pm 25.9 ESE 27 30 1016.4 - - - - - - - - -
17/06:00pm 25.8 ESE 26 29 1016.1 - - - - - - - - -
17/05:30pm 26.1 ESE 26 30 1015.9 - - - - - - - - -
17/05:00pm 26.1 ESE 26 29 1015.6 - - - - - - - - -
17/04:30pm 26.0 ESE 26 29 1015.4 - - - - - - - - -
17/04:00pm 25.9 ESE 26 28 1015.0 - - - - - - - - -
17/03:30pm 26.1 ESE 26 29 1015.2 - - - - - - - - -
17/03:00pm 26.0 ESE 26 29 1015.3 - - - - - - - - -
17/02:30pm 26.0 ESE 26 29 1015.6 - - - - - - - - -
17/02:00pm 26.1 ESE 25 29 1015.5 - - - - - - - - -
17/01:30pm 26.0 ESE 24 28 1015.9 - - - - - - - - -
17/01:00pm 26.1 ESE 25 29 1015.9 - - - - - - - - -
17/12:30pm 26.3 ESE 25 27 1016.4 - - - - - - - - -
17/12:00pm 26.0 ESE 23 27 1016.7 - - - - - - - - -
17/11:30am 26.3 ESE 25 28 1017.4 - - - - - - - - -
17/11:00am 26.2 ESE 24 28 1017.6 - - - - - - - - -
17/10:30am 26.2 ESE 26 28 1018.1 - - - - - - - - -
17/10:00am 26.3 ESE 26 30 1018.3 - - - - - - - - -
17/09:30am 26.2 ESE 25 27 1018.7 - - - - - - - - -
17/09:00am 26.2 ESE 25 29 1018.6 - - - - - - - - -
17/08:30am 26.1 ESE 25 28 1018.6 - - - - - - - - -
17/08:00am 26.0 ESE 22 25 1018.5 - - - - - - - - -
17/07:30am 25.5 ESE 20 23 1018.5 - - - - - - - - -
17/07:00am 25.6 ESE 20 24 1018.2 - - - - - - - - -
17/06:30am 25.1 SE 24 26 1017.9 - - - - - - - - -
17/06:00am 25.4 ESE 24 27 1017.7 - - - - - - - - -
17/05:30am 25.8 ESE 24 27 1017.2 - - - - - - - - -
17/05:00am 25.6 ESE 25 28 1016.8 - - - - - - - - -
17/04:30am 25.5 ESE 25 30 1016.7 - - - - - - - - -
17/04:00am 25.2 ESE 23 25 1016.5 - - - - - - - - -
17/03:30am 24.8 ESE 25 29 1016.5 - - - - - - - - -
17/03:00am 25.5 ESE 22 25 1016.6 - - - - - - - - -
17/02:30am 25.4 ESE 22 24 1016.7 - - - - - - - - -
17/02:00am 25.4 SE 24 28 1016.8 - - - - - - - - -

Other Formats:

Comma delimited format used in spreadsheet applications
http://www.bom.gov.au/fwo/IDQ60701/IDQ60701.94393.axf

JavaScript Object Notation format (JSON) in row-major order
http://www.bom.gov.au/fwo/IDQ60701/IDQ60701.94393.json